[[{"header":{"parameterUnit":"m.s-1","parameterCategory":1,"la1":30.2991,"la2":30.254,"lo1":-89.0895,"lo2":-89.0444,"dy":0.0017,"dx":0.0017,"nx":28,"ny":28,"refTime":"2026-02-14T03:00:00:Z","depth":0,"parameterNumber":2,"parameterNumberName":"U-component_of_WINDS"},"data":[0,0,0,0,0,0,0,0,0,0,0,0,0,0,0,0,0,0,0,0,0,0,0,0,0,0,0,0,0,0,0,0,0,0,0,0,0,0,0,0,0,0,0,0,0,0,0,0,0,0,0,0,0,0,0,0,0,0,5.7646,5.7645,0,5.7588,5.7587,5.7587,5.757,5.757,5.757,5.7571,5.7509,5.7507,5.7506,0,0,0,0,0,0,0,0,0,0,0,0,0,5.7744,5.7742,5.7646,5.7645,5.7645,5.7588,5.7587,5.7586,5.757,5.757,5.7571,5.7571,5.751,5.7508,5.7505,0,0,0,0,0,0,0,0,0,0,0,0,0,5.7695,5.7741,5.7646,5.763,5.7627,5.7588,5.7587,5.7586,5.757,5.757,5.7571,5.7571,5.7511,5.7508,5.7505,5.7477,0,0,5.7496,5.7495,0,0,0,0,0,0,0,0,5.7698,5.7691,5.7633,5.7631,5.7628,5.7587,5.7599,5.755,5.757,5.7592,5.7571,5.7571,5.7535,5.753,5.7518,5.7475,5.7472,5.7496,5.7494,5.7493,5.7492,0,0,0,0,0,0,0,5.7701,5.7694,5.7623,5.7632,5.7629,5.7625,5.7619,5.759,5.7561,5.759,5.7588,5.7582,5.7533,5.752,5.7516,5.7471,5.7496,5.7493,5.7492,5.749,5.7407,5.7406,0,0,0,0,0,0,5.7707,5.7697,5.7625,5.7621,5.7665,5.7623,5.7616,5.7599,5.7561,5.7556,5.7581,5.7581,5.7525,5.7519,5.7514,5.7481,5.7493,5.749,5.7489,5.7407,5.7406,5.7406,0,0,0,0,0,0,5.7709,5.7701,5.7627,5.7659,5.7649,5.7621,5.7603,5.7598,5.7585,5.7555,5.755,5.7573,5.7525,5.7518,5.7488,5.7479,5.7489,5.7486,5.7408,5.7407,5.7406,5.7414,0,0,0,0,0,0,5.7712,5.7702,5.769,5.7658,5.7647,5.7601,5.7602,5.7597,5.758,5.758,5.7546,5.7541,5.7525,5.7492,5.7485,5.7475,5.7484,5.7408,5.7407,5.7406,5.7415,5.7414,5.7413,0,0,0,0,0,5.7716,5.7694,5.769,5.7681,5.7632,5.7601,5.7594,5.7577,5.758,5.7569,5.755,5.7542,5.7481,5.7489,5.7481,5.747,5.7409,5.7407,5.7406,5.7415,5.7414,5.7413,0,0,0,0,0,0,5.7723,5.7689,5.7684,5.7651,5.763,5.7598,5.7583,5.7576,5.7552,5.7552,5.7531,5.7524,5.7496,5.748,5.7489,5.7443,5.7445,5.7442,5.7454,5.7453,5.7452,5.7456,5.7482,0,0,0,0,0,5.7722,5.7699,5.767,5.7644,5.7633,5.761,5.7596,5.7585,5.7561,5.7551,5.753,5.7507,5.7483,5.7467,5.7443,5.7413,5.7407,5.7402,5.7401,5.7401,5.7398,5.7384,5.7382,5.7402,5.7402,5.7402,0,0,5.7716,5.7695,5.7682,5.7645,5.7626,5.7604,5.7602,5.7578,5.7561,5.7547,5.7518,5.7502,5.7475,5.7446,5.7432,5.7431,5.7392,5.7399,5.7399,5.7397,5.7383,5.7381,5.7379,5.7402,5.7402,5.7402,0,0,5.7696,5.7677,5.7655,5.7638,5.7611,5.7597,5.7592,5.7562,5.7552,5.7523,5.7513,5.7493,5.7451,5.7434,5.7419,5.7398,5.7391,5.7391,5.7387,5.7373,5.7371,5.737,5.7364,5.7361,5.7389,5.7389,5.7389,0,5.7693,5.7659,5.7644,5.7621,5.7606,5.7595,5.7573,5.7557,5.7523,5.7513,5.7514,5.7465,5.7445,5.7413,5.7408,5.7397,5.7391,5.7394,5.7373,5.7371,5.737,5.7364,5.7361,5.7389,5.7389,5.7389,5.7389,0,5.7658,5.7635,5.762,5.759,5.7574,5.7551,5.7533,5.7519,5.7511,5.7497,5.7469,5.7447,5.7419,5.7411,5.7402,5.7378,5.7379,5.7377,5.7378,5.7368,5.7362,5.736,5.7389,5.7389,5.7389,5.7389,0,0,5.7636,5.7603,5.7597,5.7585,5.7557,5.7539,5.7518,5.7493,5.7481,5.746,5.7442,5.741,5.7409,5.7392,5.7382,5.737,5.7357,5.7369,5.7368,5.7368,5.7332,5.7334,5.7331,5.7353,5.7352,5.7352,5.7335,0,5.7613,5.7575,5.7563,5.753,5.751,5.7502,5.7484,5.7465,5.7453,5.7434,5.7421,5.7399,5.7398,5.7389,5.7377,5.7361,5.7349,5.7362,5.7336,5.7336,5.7343,5.7328,5.7329,5.7313,5.7332,5.7332,5.7331,0,5.758,5.7561,5.7527,5.7506,5.7497,5.748,5.7458,5.7441,5.7421,5.7413,5.7397,5.7389,5.7367,5.7372,5.7343,5.7352,5.7341,5.7333,5.7332,5.7328,5.7332,5.7324,5.7307,5.7305,5.7327,5.7327,5.7328,0,5.7569,5.7535,5.7511,5.7501,5.7475,5.7464,5.7453,5.7433,5.742,5.7402,5.7393,5.7372,5.736,5.7344,5.7331,5.7335,5.7304,5.7306,5.7297,5.7298,5.729,5.729,5.7272,5.7284,5.7284,5.7284,5.7284,0,5.7544,5.7524,5.7507,5.7492,5.7471,5.7458,5.7437,5.7425,5.7409,5.7393,5.7384,5.7369,5.7353,5.7336,5.7325,5.7304,5.7299,5.7293,5.729,5.7293,5.7294,5.7285,5.7285,5.7283,5.7283,5.7283,5.7283,0,5.7528,5.7515,5.7489,5.7468,5.7463,5.7448,5.743,5.7416,5.7406,5.7385,5.738,5.7362,5.7343,5.7329,5.7302,5.7296,5.7273,5.7271,5.728,5.7279,5.7271,5.7272,5.7245,5.7242,5.7256,5.7256,5.7256,0,5.7512,5.7497,5.7476,5.7465,5.7455,5.7437,5.7425,5.7413,5.7401,5.738,5.7369,5.7349,5.7332,5.7302,5.7287,5.7268,5.7264,5.7257,5.7261,5.7266,5.7265,5.7266,5.7265,5.7255,5.7255,5.7255,5.7255,0,5.7486,5.7482,5.7465,5.7448,5.7434,5.7419,5.7403,5.7395,5.7381,5.7368,5.7349,5.7336,5.7312,5.7293,5.7273,5.7262,5.7256,5.7255,5.7252,5.7254,5.7261,5.7258,5.7278,5.7254,5.7255,5.7255,5.7255,5.7255,5.747,5.7458,5.7442,5.7425,5.7413,5.74,5.7387,5.7376,5.736,5.734,5.7334,5.7315,5.7299,5.7272,5.7261,5.7247,5.7247,5.7242,5.7241,5.724,5.7241,5.7264,5.7243,5.7243,5.7243,5.7243,5.7243,0,5.7445,5.7435,5.742,5.74,5.7387,5.7386,5.737,5.7359,5.7343,5.7329,5.7314,5.7293,5.7276,5.7262,5.7244,5.7235,5.7233,5.7231,5.7231,5.7229,5.7241,5.7246,5.7233,5.7233,5.7233,5.7233,5.7234,5.7234,5.743,5.741,5.7404,5.7379,5.737,5.7352,5.7343,5.7332,5.7321,5.7299,5.7285,5.7277,5.7264,5.7246,5.723,5.7227,5.7221,5.722,5.7216,5.7227,5.7228,5.7229,5.7233,5.7219,5.7219,5.7205,5.7205,5.7205]},{"header":{"parameterUnit":"m.s-1","parameterCategory":1,"la1":30.2991,"la2":30.254,"lo1":-89.0895,"lo2":-89.0444,"dy":0.0017,"dx":0.0017,"nx":28,"ny":28,"refTime":"2026-02-14T03:00:00:Z","depth":0,"parameterNumber":3,"parameterNumberName":"V-component_of_WINDS"},"data":[0,0,0,0,0,0,0,0,0,0,0,0,0,0,0,0,0,0,0,0,0,0,0,0,0,0,0,0,0,0,0,0,0,0,0,0,0,0,0,0,0,0,0,0,0,0,0,0,0,0,0,0,0,0,0,0,0,0,4.5722,4.5724,0,4.5857,4.5859,4.586,4.5918,4.5918,4.5918,4.5918,4.6054,4.6057,4.6061,0,0,0,0,0,0,0,0,0,0,0,0,0,4.5514,4.5517,4.5722,4.5724,4.5726,4.5857,4.5859,4.5861,4.5918,4.5918,4.5918,4.5917,4.6052,4.6057,4.6062,0,0,0,0,0,0,0,0,0,0,0,0,0,4.5622,4.5519,4.5722,4.577,4.5776,4.5857,4.5859,4.5861,4.5918,4.5918,4.5918,4.5917,4.6051,4.6057,4.6062,4.6104,0,0,4.608,4.6082,0,0,0,0,0,0,0,0,4.5616,4.563,4.5762,4.5767,4.5774,4.5871,4.5835,4.5943,4.5918,4.5864,4.5918,4.5917,4.5993,4.6003,4.6029,4.6111,4.6117,4.608,4.6084,4.6086,4.6088,0,0,0,0,0,0,0,4.5608,4.5624,4.5776,4.5763,4.5771,4.5785,4.58,4.5856,4.5929,4.5869,4.5873,4.5889,4.5996,4.6024,4.6033,4.6119,4.608,4.6085,4.6089,4.6091,4.6244,4.6245,0,0,0,0,0,0,4.5593,4.5617,4.5771,4.578,4.5692,4.5789,4.5806,4.584,4.5928,4.5942,4.5889,4.5891,4.6014,4.6026,4.6038,4.6096,4.6086,4.6092,4.6095,4.6244,4.6244,4.6245,0,0,0,0,0,0,4.5588,4.5606,4.5766,4.57,4.5721,4.5793,4.5831,4.5843,4.587,4.5943,4.5957,4.5904,4.6014,4.603,4.6088,4.6101,4.6094,4.6099,4.6243,4.6244,4.6245,4.6209,0,0,0,0,0,0,4.5582,4.5604,4.5621,4.57,4.5725,4.5814,4.5831,4.5846,4.588,4.5884,4.5961,4.5973,4.6015,4.6079,4.6094,4.6109,4.6104,4.6242,4.6243,4.6244,4.6209,4.6209,4.6208,0,0,0,0,0,4.5574,4.5604,4.5621,4.564,4.5747,4.5815,4.5829,4.5877,4.5881,4.5899,4.5946,4.5971,4.6097,4.6085,4.6102,4.6118,4.6242,4.6243,4.6244,4.621,4.6209,4.6208,0,0,0,0,0,0,4.5524,4.5616,4.5635,4.5692,4.5745,4.5824,4.5848,4.5874,4.5926,4.5928,4.5985,4.6002,4.6056,4.6093,4.6078,4.6165,4.6171,4.6176,4.6139,4.6139,4.6138,4.6129,4.6109,0,0,0,0,0,4.5519,4.5566,4.5644,4.5686,4.5712,4.5775,4.5806,4.5839,4.5896,4.5919,4.597,4.6024,4.6077,4.611,4.6161,4.6215,4.6233,4.6235,4.6234,4.6233,4.6237,4.627,4.6272,4.625,4.625,4.625,0,0,4.551,4.5566,4.5592,4.5678,4.5723,4.5771,4.5794,4.5843,4.5879,4.5926,4.5985,4.6025,4.6089,4.6146,4.6173,4.6178,4.6247,4.6235,4.6233,4.6238,4.6272,4.6274,4.6276,4.6251,4.625,4.625,0,0,4.5518,4.5565,4.5607,4.5652,4.5721,4.5763,4.5773,4.5848,4.5877,4.5937,4.5974,4.6018,4.6106,4.6151,4.6185,4.6213,4.6239,4.6228,4.6225,4.6257,4.6258,4.626,4.6272,4.6275,4.6232,4.6231,4.6231,0,4.5498,4.5573,4.5624,4.5673,4.571,4.5756,4.5799,4.584,4.5921,4.5946,4.5951,4.6064,4.611,4.6179,4.6186,4.6212,4.6226,4.622,4.6254,4.6256,4.6259,4.6271,4.6275,4.623,4.623,4.623,4.623,0,4.5545,4.5596,4.5622,4.5701,4.5741,4.5786,4.5845,4.5879,4.5909,4.5951,4.6013,4.607,4.6135,4.6154,4.6182,4.6228,4.6229,4.6243,4.6251,4.6259,4.6271,4.6276,4.6228,4.6228,4.6229,4.6229,0,0,4.5524,4.5634,4.5642,4.568,4.576,4.5801,4.5848,4.5914,4.5943,4.5997,4.604,4.6114,4.6129,4.6167,4.6202,4.623,4.6251,4.6241,4.6243,4.6242,4.6307,4.6297,4.6301,4.6268,4.6269,4.627,4.6302,0,4.5545,4.5634,4.5683,4.5751,4.58,4.5845,4.5887,4.5941,4.5981,4.6029,4.6073,4.6126,4.614,4.6164,4.6193,4.6242,4.6265,4.624,4.6309,4.631,4.6293,4.6307,4.6297,4.6324,4.6307,4.6308,4.6308,0,4.558,4.5637,4.571,4.5787,4.5809,4.5846,4.5911,4.5956,4.6018,4.6046,4.609,4.6125,4.6178,4.6181,4.6256,4.6238,4.6269,4.6297,4.6299,4.6309,4.6311,4.6318,4.6334,4.6338,4.6316,4.6315,4.6315,0,4.556,4.5654,4.5711,4.5741,4.5832,4.5857,4.5896,4.5958,4.5995,4.6052,4.6077,4.6138,4.6172,4.6219,4.6269,4.6266,4.634,4.6346,4.6365,4.6364,4.6379,4.6378,4.6401,4.6396,4.6396,4.6396,4.6396,0,4.5578,4.5621,4.5703,4.5738,4.5789,4.5845,4.5894,4.5936,4.5992,4.6036,4.6078,4.6119,4.6183,4.6232,4.6272,4.6329,4.6343,4.6368,4.6378,4.6365,4.6362,4.6387,4.6387,4.6397,4.6397,4.6397,4.6397,0,4.5564,4.562,4.5685,4.5767,4.5788,4.5822,4.5892,4.5928,4.5972,4.6028,4.6044,4.6112,4.6172,4.6227,4.6306,4.6334,4.6392,4.6404,4.6371,4.6377,4.6394,4.6392,4.6435,4.6445,4.6431,4.6431,4.6431,0,4.5572,4.5607,4.5693,4.5727,4.5765,4.5818,4.5857,4.5914,4.5952,4.6028,4.6055,4.6119,4.6173,4.6266,4.6323,4.6385,4.64,4.6411,4.6409,4.6396,4.6402,4.64,4.6405,4.641,4.641,4.641,4.641,0,4.5582,4.5609,4.5663,4.5728,4.5774,4.5827,4.5882,4.5907,4.5974,4.6015,4.6078,4.612,4.6203,4.6266,4.6334,4.6374,4.6404,4.641,4.6418,4.6406,4.6386,4.6399,4.6371,4.6409,4.6409,4.6409,4.6409,4.6409,4.558,4.5615,4.5682,4.5742,4.5789,4.584,4.5879,4.5929,4.5982,4.6055,4.6085,4.6149,4.6213,4.6308,4.6349,4.64,4.6406,4.6417,4.642,4.6422,4.6421,4.6377,4.6412,4.6412,4.6413,4.6413,4.6413,0,4.5594,4.564,4.5694,4.5771,4.5819,4.5843,4.5906,4.5944,4.6001,4.6058,4.6111,4.6184,4.6247,4.6309,4.6375,4.6404,4.6419,4.6419,4.6418,4.6428,4.6411,4.6398,4.6406,4.6406,4.6406,4.6406,4.6406,4.6406,4.5606,4.5667,4.5702,4.5787,4.5832,4.5897,4.5931,4.5979,4.6025,4.6106,4.6158,4.6199,4.6259,4.633,4.6388,4.6405,4.6428,4.6425,4.6445,4.6429,4.6429,4.6429,4.6417,4.6429,4.6429,4.6459,4.6459,4.6459]}]]